Flag for Finland Weather past 2 weeks in Helsinki, Finland

Now
59 °F

Sunny.


Feels Like: 59 °F
Forecast: 52 / 67 °F
Wind: 5 mph from Southwest

Location: Helsinki Malmi Airport

Current Time: Aug 30, 2015 at 8:06:50 PM

Latest Report: Aug 30, 2015 at 7:20 PM


Visibility: 10 mi

Pressure: 30.01 "Hg

Humidity: 77%

Dew point: 52 °F

Location of HelsinkiLocation

Historic Weather in Helsinki — Graph

°F

Helsinki temperature yesterday

Maximum temperature yesterday: 70 °F (at 2:20 PM)
Minimum temperature yesterday: 50 °F (at 6:50 AM)
Average temperature yesterday: 62 °F

Past Weeks' High & Low Weather Summary

 TemperatureHumidityPressure
High77 °F (Aug 23, 1:20 PM)100% (Aug 17, 11:20 PM)30.45 "Hg (Aug 17, 11:20 PM)
Low43 °F (Aug 18, 5:50 AM)33% (Aug 16, 3:50 PM)29.62 "Hg (Aug 28, 12:20 PM)
Average61 °F76%30.15 "Hg
* Reported Aug 15 6:20 PM — Aug 30 6:50 PM, Helsinki, Weather by CustomWeather, © 2015

Note: Actual official high and low records may vary slightly from our data, if they occured in-between our weather recording intervals... More about our weather records

Advertising

Helsinki weather history for previous 24 hours

 ConditionsComfort  
Time TempWeatherWind HumidityBarometerVisibility
6:50 PM
Sun, Aug 30
61 °FSunny.3 mph77%30.01 "Hg10 mi
6:20 PM61 °FSunny.2 mph72%30.01 "Hg10 mi
5:50 PM59 °FSunny.3 mph77%30.01 "Hg10 mi
5:20 PM59 °FPartly sunny.2 mph88%30.01 "HgN/A
4:50 PM59 °FThundershowers. Broken clouds.2 mph82%30.04 "HgN/A
4:20 PM57 °FThunderstorms. Broken clouds.6 mph82%30.04 "HgN/A
3:50 PM57 °FThunderstorms. Partly sunny.10 mph82%30.01 "HgN/A
3:20 PM64 °FThundershowers. Broken clouds.8 mph68%30.01 "HgN/A
2:50 PM66 °FThundershowers. Broken clouds.9 mph60%30.01 "HgN/A
2:20 PM66 °FPartly sunny.6 mph52%29.98 "HgN/A
1:50 PM63 °FSprinkles. Broken clouds.8 mph59%30.01 "HgN/A
1:20 PM66 °FPartly sunny.8 mph64%30.01 "HgN/A
12:50 PM66 °FScattered clouds.8 mph64%30.01 "HgN/A
12:20 PM66 °FScattered clouds.6 mph68%30.01 "HgN/A
11:50 AM64 °FScattered clouds.5 mph68%30.01 "HgN/A
11:20 AM64 °FPartly sunny.6 mph73%30.01 "HgN/A
10:50 AM63 °FPartly sunny.6 mph73%30.01 "HgN/A
10:20 AM63 °FSunny.3 mph77%30.01 "Hg10 mi
9:50 AM61 °FPassing clouds.6 mph77%30.01 "HgN/A
9:20 AM59 °FSunny.2 mph82%30.01 "Hg10 mi
8:50 AM55 °FSunny.1 mph88%30.01 "Hg10 mi
8:20 AM54 °FSunny.No wind94%30.01 "Hg10 mi
7:50 AM50 °FSunny.No wind100%30.01 "Hg10 mi
7:20 AM48 °FSunny.No wind94%30.01 "Hg10 mi
6:50 AM46 °FClear.No wind100%30.01 "Hg3 mi
6:20 AM45 °FFog.No wind100%30.01 "Hg1 mi
5:50 AM45 °FFog.No wind100%30.01 "Hg1 mi
5:20 AM46 °FClear.1 mph100%30.01 "HgN/A
4:50 AM46 °FLight fog.No wind100%30.01 "Hg0 mi
4:20 AM48 °FLight fog.No wind94%30.01 "Hg0 mi
3:50 AM46 °FLight fog.No wind100%30.01 "Hg0 mi
3:20 AM48 °FFog.No wind94%30.01 "Hg1 mi
2:50 AM48 °FClear.No wind100%30.01 "Hg4 mi
2:20 AM50 °FClear.1 mph94%30.01 "Hg10 mi
1:50 AM52 °FClear.1 mph94%30.01 "Hg10 mi
1:20 AM52 °FClear.1 mph88%30.01 "Hg10 mi
12:50 AM55 °FClear.2 mph82%30.01 "Hg10 mi
12:20 AM54 °FClear.1 mph88%29.98 "Hg10 mi
11:50 PM
Sat, Aug 29
55 °FClear.1 mph82%29.98 "Hg10 mi
11:20 PM57 °FClear.3 mph77%29.98 "Hg10 mi
10:50 PM59 °FClear.3 mph72%29.98 "Hg10 mi
10:20 PM59 °FClear.2 mph72%29.98 "Hg10 mi
9:50 PM61 °FClear.5 mph68%29.98 "Hg10 mi
9:20 PM61 °FSunny.6 mph68%29.98 "Hg10 mi
8:50 PM63 °FPassing clouds.6 mph64%29.95 "HgN/A
8:20 PM64 °FSunny.5 mph60%29.95 "Hg10 mi
Weather by CustomWeather, © 2015

See weather overviewHow to use our weather pages